Location: Rancho Del Sol Observatory
(38.7214°N, 120.6350°W)
Time: 16:29:55
(UTC-08:00)

Courier 1B Rocket - Pass Details

Date: 30 January 2020
Orbit: 920 x 1202 km, 28.2° (Epoch: 24 February)

Event Time Altitude Azimuth Distance (km) Brightness Sun altitude
Rises 12:15:38 0° 258° (WSW) 4,008 8.3 33.6°
Reaches altitude 10° 12:18:47 10° 250° (WSW) 3,009 7.9 33.6°
Maximum altitude 12:25:15 33° 189° (S) 1,716 9.5 33.6°
Drops below altitude 10° 12:31:20 10° 127° (SE) 2,821 7.9 33.5°
Sets 12:34:12 0° 118° (ESE) 3,728 8.3 33.5°
